Aérodrome :
LOGIN :

S'inscrire | Disclaimer

   EN    FR    IT 

 










Légende :    VFR   VFR Marginal   IFR   IFR Intensif   IFR Très Intensif
Visi : 
Plafond : 
>= 8 km
>= 3000ft
5 à 8 km
1000 à 3000 ft
1500m à 5 km
500 à 1000 ft
800 à 1500m
200 à 500 ft
< 800m
< 200 ft
Symboles :   Orages  Brouillard  Fortes neiges  Fortes précipitations  Vent > 20 kt
SIGMETs :   Divers  Orages  Givrage  Turbulence  Onde Orograph.  Cendres Volcan.







- Altitude de l'aérodrome : 1649 ft
- Code IATA : HHN


EDFH - Frankfurt-Hahn Rhineland-Palatinate

DERNIER METAR :
  • 180620Z 22012KT 9999 FEW012 18/16 Q1016

METARs EXPIRÉS :
  • 180550Z 22010KT 190V250 9999 FEW015 18/16 Q1016
  • 180520Z 19010KT 9999 FEW027 18/16 Q1015
  • 180450Z 21010KT 9999 FEW013 18/16 Q1016
  • 180420Z 21010KT 9999 BKN018 18/16 Q1016
  • 180350Z 16008KT CAVOK 17/16 Q1016

TAF TAF EDFH
Valide du 18 à 06h jusqu'au 19 à 06h UTC


180500Z 1806/1906 22007KT 9999 BKN020
TEMPO 1806/1823 4000 SHRA BKN009 BKN014CB
PROB30
TEMPO 1820/1823 TSRA
Pas de NOTAMs connus pour ce terrain.



MET'MAP, la Météo Aéronautique d'un coup d'oeil ! - Copyright ORBIFLY Décembre 2007 - Disclaimer

ORBIFLY MET'MAP TEAM :

Programmation & Développement : Alexandra Zaïnal
Conception & Développement : Baudouin d'Aumeries
Co-Programmation & Développement : Marc-Olivier Méhu
Soutien technique & logistique : Manuel Goepfert

Contact : metmap@orbifly.com




SOURCES & CREDITS :

   NOAA